Content
SEND FEEDBACK

Daily
Averages
Monthly
Summary
United States of America

BULLHEAD CITY, ARIZONA


Home > North America > United States > Arizona
Elevation: 176 meters     Latitude: 35 07N     Longitude: 114 36W

WEATHER
 
SELECT A DAY
Number of Records: 187,461;   Date Range: 7/1/96 - 9/30/14
 
SHARE

PRINT THIS DATA

[ ← Previous Day ]
WEATHER ALMANAC - 31 JANUARY, 2013
[ Next Day → ]
[ °F ]   °C
Weather ElementAverageHighLow
Temperature12.8 °C19 °C (1:55 pm)5 °C (4:15 am)
Dewpoint0.9 °C4 °C (8:55 am)-1 °C (3:15 pm)
Humidity48.9 %87 % (5:35 am)26 % (3:15 pm)
Barometer1023.7 hPa1026.1 hPa (1:55 am)1020.3 hPa (5:35 pm)
Wind Speed15.8 km/h38.9 km/h (3:35 pm)
Wind Gust46.3 km/h (3:15 pm)
Weather ElementAverage
Visibility16.1 km
Wind DirectionESE (114.2 °)

Weather ElementTotal
Precipitation---
Heating Degree Days6.3 (Base 18.3)
Growing Degree Days2 (Base 10)
Averaged from 69 records on 31 January, 2013
WEATHER CONDITIONS BREAKOUT
WIND DIRECTION BREAKOUT
WEATHER BY HOUR - 31 JANUARY, 2013
[ °F ]   °C
Local TimeTemperatureDewpointHumidityBarometerVisibilityWind DirectionWind SpeedGust SpeedPrecipitationEventsConditions
12:35 AM8 °C2 °C66 %1025.4 hPa16.1 kmNE (40°)5.6 km/hClear
12:55 AM9 °C2 °C62 %1025.4 hPa16.1 kmNNE (30°)5.6 km/hClear
1:15 AM7 °C3 °C76 %1025.7 hPa16.1 kmEast (100°)5.6 km/hClear
1:35 AM8 °C2 °C66 %1025.7 hPa16.1 kmENE (70°)9.3 km/hClear
1:55 AM9 °C2 °C62 %1026.1 hPa16.1 kmCalmClear
2:15 AM8 °C2 °C66 %1026.1 hPa16.1 kmCalmClear
2:35 AM7 °C2 °C71 %1026.1 hPa16.1 kmEast (100°)5.6 km/hClear
2:55 AM6 °C2 °C76 %1026.1 hPa16.1 kmCalmClear
3:15 AM6 °C2 °C76 %1025.7 hPa16.1 kmCalmClear
3:35 AM7 °C2 °C71 %1025.7 hPa16.1 kmCalmClear
3:55 AM7 °C2 °C71 %1025.7 hPa16.1 kmCalmClear
4:15 AM5 °C2 °C81 %1025.4 hPa16.1 kmCalmClear
4:35 AM7 °C2 °C71 %1025.4 hPa16.1 kmCalmClear
4:55 AM6 °C2 °C76 %1025.4 hPa16.1 kmCalmClear
5:15 AM6 °C2 °C76 %1025.4 hPa16.1 kmCalmClear
5:35 AM5 °C3 °C87 %1025.4 hPa16.1 kmSouth (170°)5.6 km/hClear
5:55 AM6 °C2 °C76 %1025.4 hPa16.1 kmESE (110°)5.6 km/hClear
6:15 AM5 °C2 °C81 %1025.4 hPa16.1 kmCalmClear
6:55 AM7 °C3 °C76 %1025.4 hPa16.1 kmNE (40°)7.4 km/hClear
7:15 AM5 °C3 °C87 %1025.4 hPa16.1 kmCalmClear
7:35 AM6 °C3 °C81 %1025.4 hPa16.1 kmCalmClear
7:55 AM7 °C3 °C76 %1025.4 hPa16.1 kmNW (320°)5.6 km/hClear
8:15 AM7 °C3 °C76 %1025.4 hPa16.1 kmNNW (340°)7.4 km/hClear
8:35 AM7 °C3 °C76 %1025.4 hPa16.1 kmNorth (10°)9.3 km/hClear
8:55 AM8 °C4 °C76 %1025.7 hPa16.1 kmNNW (340°)7.4 km/hClear
9:15 AM9 °C3 °C66 %1025.4 hPa16.1 kmNorth (360°)20.4 km/hClear
9:35 AM12 °C0 °C44 %1025.7 hPa16.1 kmNorth (10°)22.2 km/h29.6 km/hClear
9:55 AM13 °C0 °C41 %1025.4 hPa16.1 kmNorth (10°)24.1 km/hClear
10:15 AM13 °C0 °C41 %1025.4 hPa16.1 kmNNE (20°)25.9 km/hClear
10:35 AM13 °C0 °C41 %1025.7 hPa16.1 kmNorth (10°)25.9 km/h35.2 km/hClear
10:55 AM14 °C0 °C38 %1025.7 hPa16.1 kmNNE (20°)22.2 km/h31.5 km/hClear
11:15 AM14 °C0 °C38 %1025.7 hPa16.1 kmNNE (20°)22.2 km/h33.3 km/hClear
11:35 AM15 °C0 °C36 %1025.7 hPa16.1 kmNNE (20°)24.1 km/h33.3 km/hClear
11:55 AM16 °C0 °C34 %1025.4 hPa16.1 kmNorth (10°)27.8 km/hClear
12:15 PM17 °C0 °C32 %1025.1 hPa16.1 kmNorth (10°)29.6 km/h37 km/hClear
12:35 PM17 °C0 °C32 %1024.7 hPa16.1 kmNorth (10°)33.3 km/h42.6 km/hClear
12:55 PM18 °C0 °C30 %1024.4 hPa16.1 kmNorth (10°)25.9 km/h40.7 km/hClear
1:15 PM18 °C0 °C30 %1024 hPa16.1 kmNorth (350°)29.6 km/h38.9 km/hClear
1:35 PM18 °C0 °C30 %1023.7 hPa16.1 kmNorth (360°)31.5 km/h42.6 km/hClear
1:55 PM19 °C0 °C28 %1023.4 hPa16.1 kmNorth (360°)31.5 km/h44.4 km/hClear
2:15 PM19 °C0 °C28 %1023.4 hPa16.1 kmNorth (350°)33.3 km/h42.6 km/hClear
2:35 PM19 °C0 °C28 %1023 hPa16.1 kmNorth (360°)33.3 km/h42.6 km/hClear
2:55 PM19 °C0 °C28 %1022.4 hPa16.1 kmNorth (350°)37 km/h44.4 km/hClear
3:15 PM19 °C-1 °C26 %1022 hPa16.1 kmNorth (360°)37 km/h46.3 km/hClear
3:35 PM19 °C-1 °C26 %1021.7 hPa16.1 kmNorth (350°)38.9 km/h44.4 km/hClear
3:55 PM19 °C-1 °C26 %1021.3 hPa16.1 kmNorth (350°)29.6 km/h42.6 km/hClear
4:15 PM19 °C0 °C28 %1021.3 hPa16.1 kmNorth (360°)33.3 km/h42.6 km/hClear
4:35 PM19 °C0 °C28 %1021 hPa16.1 kmNorth (360°)29.6 km/hClear
4:55 PM19 °C0 °C28 %1021 hPa16.1 kmNorth (350°)27.8 km/h37 km/hClear
5:15 PM19 °C-1 °C26 %1020.7 hPa16.1 kmNorth (360°)29.6 km/hClear
5:35 PM19 °C0 °C28 %1020.3 hPa16.1 kmNorth (360°)31.5 km/hClear
5:55 PM19 °C0 °C28 %1020.7 hPa16.1 kmNorth (10°)25.9 km/h33.3 km/hClear
6:15 PM18 °C0 °C30 %1020.7 hPa16.1 kmNorth (10°)24.1 km/h33.3 km/hClear
6:35 PM18 °C0 °C30 %1020.7 hPa16.1 kmNNE (20°)22.2 km/hClear
6:55 PM17 °C0 °C32 %1021 hPa16.1 kmNNE (30°)22.2 km/hClear
7:15 PM17 °C0 °C32 %1021.3 hPa16.1 kmNE (40°)16.7 km/hClear
7:35 PM17 °C0 °C32 %1021.7 hPa16.1 kmNE (40°)16.7 km/hClear
7:55 PM17 °C0 °C32 %1021.7 hPa16.1 kmNNE (30°)18.5 km/hClear
8:15 PM17 °C0 °C32 %1022 hPa16.1 kmNNE (30°)22.2 km/hClear
8:35 PM15 °C0 °C36 %1022 hPa16.1 kmENE (60°)13 km/hClear
8:55 PM14 °C0 °C38 %1022.4 hPa16.1 kmNNE (20°)5.6 km/hClear
9:15 PM15 °C0 °C36 %1022.4 hPa16.1 kmCalmClear
9:35 PM15 °C0 °C36 %1022.4 hPa16.1 kmCalmClear
9:55 PM14 °C0 °C38 %1022 hPa16.1 kmNNE (30°)14.8 km/hClear
10:15 PM15 °C0 °C36 %1022 hPa16.1 kmNorth (10°)14.8 km/hClear
10:35 PM14 °C0 °C38 %1022 hPa16.1 kmNNW (340°)5.6 km/hClear
11:15 PM13 °C2 °C47 %1022 hPa16.1 kmNorth (10°)13 km/hClear
11:35 PM12 °C2 °C51 %1022.4 hPa16.1 kmNNE (20°)11.1 km/hClear
11:55 PM13 °C2 °C47 %1022.4 hPa16.1 kmNNE (20°)7.4 km/hClear
Hourly data recorded from KIFP, located 0 kilometers away from Bullhead City, Arizona







STORIES FROM OUR PARTNERS